Regional Weather Roundup
Issued by NWS Newport/Morehead, NC

Current Version | Previous Version | Text Only | Print | Product List | Glossary Off
Versions: 1 2 3 4 5 6 7 8 9 10 11 12 13 14 15 16 17 18 19 20 21 22 23 24 25 26 27 28 29 30 31 32 33 34 35 36 37 38 39 40 41 42 43 44 45 46 47 48 49 50
000 ASUS42 KMHX 252325 RWRMHX WEATHER ROUNDUP FOR EASTERN NORTH CAROLINA NATIONAL WEATHER SERVICE NEWPORT/MOREHEAD CITY NC 700 PM EDT THU MAY 25 2017 NOTE: "FAIR" INDICATES FEW OR NO CLOUDS BELOW 12,000 FEET WITH NO SIGNIFICANT WEATHER AND/OR OBSTRUCTIONS TO VISIBILITY NCZ015>017-031-032-045>047-102-103-260000- NORTH COAST CITY SKY/WX TMP DP RH WIND PRES REMARKS EDENTON MOSUNNY 71 58 62 W8 29.59R ELIZABETH CITY CLOUDY 67 60 78 S8 29.57S KITTY HAWK LGT RAIN 68 55 62 SW9G18 29.58R MANTEO LGT RAIN 67 59 74 W5 29.59R $$ NCZ045>047-081-094-103-104-260000- CENTRAL COAST CITY SKY/WX TMP DP RH WIND PRES REMARKS FRISCO CLOUDY 71 56 58 W22G41 29.60S $$ NCZ095-097-098-100-101-260000- SOUTHERN COAST CITY SKY/WX TMP DP RH WIND PRES REMARKS BEAUFORT SUNNY 71 58 63 W18G30 29.64S CEDAR ISLAND NOT AVBL JACKSONVILLE SUNNY 72 56 57 SW14 29.64R PINEY ISLAND NOT AVBL WILMINGTON SUNNY 72 56 57 SW20G25 29.66R $$ NCZ011>013-027>030-043-044-078>080-089-090>093-098-260000- COASTAL PLAIN CITY SKY/WX TMP DP RH WIND PRES REMARKS AHOSKIE LGT RAIN 66 55 68 NW6G16 29.61R CLINTON MOSUNNY 74 56 54 W18G25 29.64R ELIZABETHTOWN SUNNY 74 54 50 W14G21 29.67R GOLDSBORO SUNNY 75 53 46 W16 29.60R GREENVILLE MOSUNNY 70 55 60 W8 29.64R HAVELOCK SUNNY 72 55 55 SW12G23 29.64S KENANSVILLE MOSUNNY 72 54 53 SW9G20 29.63R KINSTON MOSUNNY 75 55 50 SW10G18 29.61R NEW BERN SUNNY 70 59 68 SW12 29.63S RICHLANDS SUNNY 72 57 59 SW10 29.64R ROCKY MOUNT MOSUNNY 71 56 58 W9 29.60R WASHINGTON CLOUDY 67 58 73 SW3 29.60R WHITEVILLE MOSUNNY 73 54 51 SW7 29.68R $$ AMZ130-135-150-152-154-156-158-170-250-252-270-ANZ085-086-088-633-658-670-260000- MARINE OBSERVATIONS STATION/POSITION TIME TEMP WIND PRES WAVE SWELL AIR SEA DIR/SP/G HT/PER HT/PER (UTC) (F) (DEG/KT/KT) (MB) (FT/S) (FT/S) CHESAPEAKE LIGHT NOT AVBL 64 E VA BEACH 2250 67 64 240/ 25/ 33 999.4 8/ 8 DUCK 2254 66 62 240/ 13/ 20 1001.5 2 E DUCK 2300 63 N/A 4/ 7 OREGON INLET 2254 71 72 230/ 17/ 22 1001.3 13E OREGON INLT 2248 66 N/A 8/ 8 5/ 8 HATTERAS CG 2254 69 73 230/ 20/ 29 1002.3 DIAMOND BUOY 2250 71 78 240/ 29/ 35 1001.2 10/ 8 CAPE LOOKOUT 2300 71 240/ 15/ 23 1003.4 BEAUFORT LAB 2254 71 72 240/ 9/ 18 1002.8 30 SE NEW RVR IN 2308 72 75 250/ 23/ 31 1004.4 30 SE NEW RVR IN 2313 75 N/A 10/ 7 2/11 27 SE WRIGHTSVLE 2308 73 75 230/ 21/ 29 1004.4 5 SE WRIGHTSVLE 2308 73 74 240/ 16/ 27 1004.7 225 S CAPE HAT 2250 76 77 220/ 17/ 21 1009.5 9/ 8 41 SE CHARLESTON 2300 74 76 260/ 21/ 25 1007.8 $$

USA.gov is the U.S. government's official web portal to all federal, state and local government web resources and services.